www.pogodaiklimat.ru

АРХИВ ПОГОДЫ в Бостоне

Время (UTC), дата Ветер
(напр.,м/с)
 
Видим.   Явления Облачность Т
(С)
Тd
(С)
f
(%)
Тe
(С)
Тes
(С)
Комфортность

P
(гПа)

Po
(гПа)
Тmin
(С)
Tmax
(С)
R
(мм)
SD
(см)
23:26 26.09 ЮЗ  7
{10} 
16 км    10/10 м
[средняя верхняя] 
+24.0  +21.0  83  +30  +30  очень
душно 
1011.5  1011.0  +21.1  +24.4  8.4   
00:54 27.09 Ю  16 км    10/10 м
[средняя верхняя] 
+24.0  +21.0  83  +30  +30  очень
душно 
1011.9  1011.0  +21.1  +24.4  8.4   
01:30 27.09 ЮЗ  16 км    10/10 м
[средняя верхняя] 
+24.0  +21.0  83  +30  +30  очень
душно 
1011.9  1011.0  +21.1  +24.4  8.4   
02:12 27.09 З  16 км    10/10 м
[средняя верхняя] 
+24.0  +21.0  83  +30  +30  очень
душно 
1013.3  1012.0  +21.1  +24.4  8.4   
03:14 27.09 СЗ  5 км    10/10 м
[средняя верхняя] 
+21.0  +19.0  88  +26  +26  душно  1013.2  1012.4  +21.1  +24.4  8.4   
04:54 27.09 З  6 км    10/10 м
[средняя верхняя] 
+21.1  +19.4  90  +26  +26  душно  1013.8  1013.0  +21.1  +24.4  8.4   
05:47 27.09 З  16 км    10/10 м
[средняя верхняя] 
+21.0  +19.0  88  +26  +26  душно  1014.1  1013.4  +17.2  +21.7     
06:54 27.09 СЗ  16 км    10/10 м
[средняя верхняя] 
+21.0  +18.0  83  +25  +25  комфорт  1014.8  1014.1  +17.2  +21.7     
07:54 27.09 СЗ  4
{8} 
16 км    10/10 м
[средняя верхняя] 
+18.9  +15.6  81  +20  +20    1015.7  1015.1  +17.2  +21.7     
08:54 27.09 СЗ  16 км    10/10 м
[средняя верхняя] 
+18.0  +14.0  77  +17  +17    1016.8  1016.1  +17.2  +21.7     
09:54 27.09 СЗ  16 км    10/10 м
[средняя верхняя] 
+17.0  +13.0  77  +16  +16    1018.0  1017.4  +17.2  +21.7     
10:54 27.09 С  16 км    10/10 м
[средняя верхняя] 
+17.2  +12.8  75  +16  +16    1018.9  1018.1  +17.2  +21.7     
11:54 27.09 С  16 км    10/10 м
[средняя верхняя] 
+18.0  +13.0  73  +18  +18    1020.0  1019.1  +17.2  +20.6     
13:54 27.09 С  16 км    10/10 м
[средняя верхняя] 
+20.0  +10.6  55  +21  +21  комфорт  1020.9  1020.2  +17.2  +20.6     
14:54 27.09 СВ  16 км    10/10 м
[средняя верхняя] 
+21.0  +10.0  49  +23  +23  комфорт  1020.9  1020.2  +17.2  +20.6     
15:54 27.09 В  16 км    10/10 м
[средняя верхняя] 
+20.0  +11.0  56  +21  +21  комфорт  1021.0  1020.2  +17.2  +20.6     
16:54 27.09 В  16 км    10/10 м
[средняя верхняя] 
+19.4  +12.8  66  +20  +20    1020.6  1019.8  +17.2  +20.6     
17:54 27.09 В  16 км    10/10 м
[средняя верхняя] 
+18.0  +12.0  68  +17  +17    1020.4  1019.8  +16.1  +19.4     
18:54 27.09 В  16 км    10/10 м
[средняя верхняя] 
+18.0  +11.0  64  +17  +17    1020.7  1019.8  +16.1  +19.4     
19:54 27.09 В  16 км    10/10 м
[средняя верхняя] 
+17.8  +10.6  63  +17  +17    1020.8  1020.2  +16.1  +19.4     
20:54 27.09 СВ  16 км    10/10 м
[средняя верхняя] 
+17.0  +9.0  59  +16  +16    1020.1  1019.5  +16.1  +19.4     
21:54 27.09 СВ  16 км    10/10 м
[средняя верхняя] 
+17.0  +8.0  55  +16  +16    1020.4  1019.8  +16.1  +19.4     
22:54 27.09 В  16 км    10/10 м
[средняя верхняя] 
+16.1  +11.1  72  +15  +15    1021.5  1020.8  +16.1  +19.4     
23:54 27.09 В  16 км    10/10 м
[средняя верхняя] 
+17.0  +11.0  68  +17  +17    1021.6  1020.8  +16.1  +16.7     
01:54 28.09 В  16 км    10/10 м
[средняя] 
+16.1  +11.1  72  +15  +15    1021.0  1020.2  +16.1  +16.7     
02:54 28.09 В  16 км    10/10 м
[средняя] 
+17.0  +12.0  72  +16  +16    1020.4  1019.8  +16.1  +16.7     
03:54 28.09 В  16 км    10/10 м
[средняя] 
+16.7  +11.1  70  +15  +15    1019.1  1018.5  +16.1  +16.7     
04:54 28.09 СВ  16 км    10/10 м
[средняя] 
+16.7  +11.7  72  +16  +16    1019.7  1019.1  +16.1  +16.7     
05:54 28.09 СВ  16 км    10/10 м
[средняя] 
+17.0  +12.0  72  +16  +16    1019.3  1018.5  +15.0  +16.7  2.8   
06:54 28.09 С  16 км    10/10 м
[средняя] 
+16.0  +12.0  77  +15  +15    1018.9  1018.1  +15.0  +16.7  2.8   
07:54 28.09 СВ  16 км    10/10 м
[средняя] 
+16.1  +11.7  75  +15  +15    1018.7  1017.8  +15.0  +16.7  2.8   
08:54 28.09 СВ  16 км    10/10 м
[средняя] 
+16.0  +12.0  77  +14  +14    1018.6  1017.8  +15.0  +16.7  2.8   
09:18 28.09 СВ  16 км    10/10 м
[средняя] 
+16.0  +12.0  77  +15  +15    1019.4  1017.8  +15.0  +16.7  2.8   
10:32 28.09 СВ  5 км    10/10 м
[средняя] 
+15.0  +13.0  88  +14  +14    1019.4  1018.8  +15.0  +16.7  2.8   
11:54 28.09 СВ  5 км    10/10 м
[средняя] 
+14.0  +12.0  88  +12  +12    1018.7  1018.1  +14.4  +15.6  3.8   
12:27 28.09 С  16 км    10/10 м  +15.0  +13.0  88  +13  +13    1018.9  1018.1  +14.4  +15.6  3.8   
13:54 28.09 С  16 км    10/10 м  +15.6  +13.3  86  +14  +14    1018.7  1018.1  +14.4  +15.6  3.8   
14:54 28.09 СВ  5 км    10/10 м  +15.0  +13.0  88  +13  +13    1018.0  1017.1  +14.4  +15.6  5.8   
15:54 28.09 С  6 км    10/10 м  +14.0  +12.0  88  +12  +12    1018.0  1017.4  +14.4  +15.6  5.8   
16:54 28.09 С  14 км    10/10 м  +14.4  +10.6  78  +12  +12    1017.9  1017.1  +14.4  +15.6  5.8   
17:54 28.09 СВ  16 км    10/10 м  +16.0  +11.0  72  +15  +15    1017.4  1016.8  +14.4  +16.1  0.3   
18:27 28.09 С  16 км    10/10 м  +16.0  +11.0  72  +15  +15    1017.4  1016.8  +14.4  +16.1  0.3   
19:54 28.09 СВ  16 км    8/8 м  +15.6  +11.7  78  +15  +16    1017.2  1016.4  +14.4  +16.1  0.3   
20:54 28.09 С  16 км    8/8 м  +16.0  +12.0  77  +16  +17    1018.0  1017.4  +14.4  +16.1  0.3   
21:54 28.09 С  16 км    8/8 м  +16.0  +11.0  72  +16  +16    1018.3  1017.4  +14.4  +16.1  0.3   
22:54 28.09 С  16 км    5/5 м  +15.0  +11.1  77  +14  +14    1018.4  1017.8  +14.4  +16.1  0.3   
23:54 28.09 СВ  16 км    ясно  +15.0  +11.0  77  +15  +15    1018.7  1017.8  +13.3  +16.1  0.3   
00:54 29.09 ЮЗ  16 км    2/2 м  +15.0  +11.0  77  +15  +15    1018.6  1017.8  +13.3  +16.1  0.3   

 

Местоположение метеостанции Logan International Airport: широта 42.3606 долгота -71.0106 высота над уровнем моря 6 м.

В архиве по умолчанию представлена погода в Бостоне за последние 1-2 суток. Обновление информации о фактической погоде в базе происходит ежечасно! Архивные данные за месяц целиком и за предыдущие месяцы Вы можете получить, выбрав интересующий диапазон дат из раскрывающегося списка и нажав кнопку "Ввод!".

Внимание! Архив погоды МЕТАР в базе сайта в настоящее время начинается c 1 января 2013 г. Нет смысла пытаться выбрать более раннюю дату.

Внимание! Время в таблицах - всемирное. Для получения местного времени необходимо прибавить поправку, которая в Бостоне равна -5 ч.

Ветер - указаны скорость ветра в м/с и направление, откуда дует ветер: С - северный, СВ - северо-восточный, В - восточный, ЮВ - юго-восточный, Ю - южный, ЮЗ - юго-западный, З - западный, СЗ - северо-западный.
Видимость - горизонтальная дальность видимости в метрах или километрах. При видимости от 1 до 10 км при отсутствии осадков обычно наблюдается дымка, при ухудшении видимости до 1 км и менее - туман. В сухую погоду видимость может ухудшаться дымом, пылью или мглою.
Атмосферные явления - указаны явления, наблюдавшиеся в указанный момент времени.
Облачность - указаны через наклонную черту верхняя и нижняя облачность в баллах и высота нижней границы облаков в метрах. Внимание: облачность, как и прочие метеорологические величины в США измеряются автоматическими метеостанциями. Указанные значения в баллах носят условный характер и показывают процент времени, в течение которого, в среднем, лазерный луч высотомера отражался от облаков обратно.
T - Температура воздуха - температура, измеренная на высоте 2 м над землей.
Td - Температура точки росы - температура, при понижении до которой содержащийся в воздухе водяной пар достигнет насыщения.
f - Относительная влажность воздуха - влажноcть воздуха, измеренная на высоте 2 м над землей.
Te - Эффективная температура - температура, которую ощущает одетый по сезону человек в тени. Характеристика душности погоды. При расчете учитывается влияние влажности воздуха и скорости ветра на теплоощущения человека.
Tes - Эффективная температура на солнце - температура, которую ощущает человек, с поправкой на солнечный нагрев. Характеристика знойности погоды. Зависит от высоты солнца над горизонтом, облачности и скорости ветра. Ночью, в пасмурную погоду, а также при ветре 12 м/с и более поправка равна нулю.
P - Атмосферное давление - приведенное к уровню моря атмосферное давление.
Po - Атмосферное давление - измеренное на уровне метеостанции атмосферное давление.
Tmin - Минимальная температура - минимум температуры воздуха на высоте 2 м над землей.
Tmax - Максимальная температура - максимум температуры воздуха на высоте 2 м над землей.
R - Количество осадков - Количество выпавших осадков за 3 или 6 часов, мм.
SD - Снежный покров - Высота снежного покрова, см.